*** DING..DANG..DONG and DONG ***

TR)

Hava sahamızda SMART projesi kapsamında LTBB_CTR sektör ismi "Ankara Kontrol" olarak değişmiştir. Tüm uçuş yapan pilotlarımızın hava sahamızda yapılan güncellemeleri chartlarından bir kez daha kontrol etmelerini rica ederiz. 

Kırımsız uçuşlar dileriz.

 

EN)

According to SMART project, LTBB_CTR sector was renamed as "Ankara Control". We kindly request our pilots check updates from their charts once more time. 

Have a safe flight.

 

For more info please contact us via welcome@turvacc.org 

 

Have a great flight in VATSIM Turkish Airspace!

VATSIM Turkiye / TURvACC Crew

 

 

 

1 Hava sahamızda uçuş yapan bir pilot musunuz?     
Are you a pilot flys in our airspace?
2 Hava sahamızda yetkili bir kontrolör müsünüz?   
Are you an authorized controller in our airspace? 

 

 

UTC
Istanbul

Istanbul WX Radar

Events Booking Upcoming events

There are no up-coming events

VATSIM Türkiye Airspace Online Traffic

-> LTBA 241520Z 01015KT 330V080 9999 BKN025 26/19 Q1013 NOSIG
-> LTFJ 241520Z 03014KT 9999 SCT020 BKN090 25/21 Q1013 NOSIG
-> LTAC 241520Z 08004KT 020V160 9999 FEW025CB SCT035 25/16 Q1014 TEMPO 01015KT -TSRA
-> LTAI 241520Z 18006KT 140V220 9999 FEW030 30/23 Q1006 NOSIG
-> LTCG 241520Z VRB02KT 9999 BKN035 27/23 Q1011 NOSIG
-> LTCC 241520Z 21010KT 190V250 9999 FEW040 BKN100 38/03 Q1007 NOSIG

Online ATC & vACC Staff

ATC Bookings List

LTAC FlightRadar Live Traffic
LTBA FlightRadar Live Traffic
LTAI FlightRadar Live Traffic